This is the latest recevied weather packets stored in our database for station/object KJ5IIV. If no packets are shown the sender has not sent any weather packets the latest 10 day(s).
| Time | Temp. | Humidity | Pressure | Rain* | Wind** | Luminosity | Snow |
|---|---|---|---|---|---|---|---|
| 1777937932 | 25° C | 55% | 1008 hPa | 0 mm | - | 56 W/m² | - |
| 1777937628 | 25.56° C | 53% | 1008.3 hPa | 0 mm | - | 69 W/m² | - |
| 1777937324 | 25.56° C | 52% | 1008.1 hPa | 0 mm | - | 86 W/m² | - |
| 1777937022 | 25.56° C | 52% | 1008.2 hPa | 0 mm | - | 82 W/m² | - |
| 1777936718 | 25.56° C | 51% | 1008.2 hPa | 0 mm | - | 83 W/m² | - |
| 1777936415 | 25.56° C | 51% | 1008.2 hPa | 0 mm | - | 88 W/m² | - |
| 1777936111 | 25.56° C | 50% | 1008.3 hPa | 0 mm | - | 92 W/m² | - |
| 1777935809 | 25.56° C | 50% | 1008.3 hPa | 0 mm | - | 92 W/m² | - |
| 1777935507 | 25.56° C | 49% | 1008.7 hPa | 0 mm | - | 98 W/m² | - |
| 1777935203 | 26.11° C | 50% | 1008.4 hPa | 0 mm | - | 91 W/m² | - |
| 1777934901 | 26.11° C | 49% | 1008.4 hPa | 0 mm | - | 96 W/m² | - |
| 1777934598 | 26.11° C | 47% | 1008.4 hPa | 0 mm | - | 103 W/m² | - |
| 1777934294 | 26.11° C | 47% | 1008.8 hPa | 0 mm | - | 90 W/m² | - |
| 1777933990 | 26.11° C | 49% | 1008.6 hPa | 0 mm | - | 97 W/m² | - |
| 1777933687 | 26.11° C | 49% | 1008.8 hPa | 0 mm | - | 117 W/m² | - |
| 1777933384 | 26.67° C | 48% | 1008.8 hPa | 0 mm | - | 128 W/m² | - |
| 1777933082 | 26.67° C | 47% | 1008.7 hPa | 0 mm | - | 130 W/m² | - |
| 1777932778 | 26.67° C | 47% | 1008.8 hPa | 0 mm | - | 236 W/m² | - |
| 1777932475 | 27.22° C | 45% | 1008.8 hPa | 0 mm | - | 153 W/m² | - |
| 1777932172 | 27.22° C | 46% | 1008.9 hPa | 0 mm | - | 415 W/m² | - |
| 1777931869 | 27.22° C | 46% | 1008.9 hPa | 0 mm | - | 427 W/m² | - |
| 1777931566 | 27.22° C | 45% | 1009 hPa | 0 mm | - | 414 W/m² | - |
| 1777931262 | 27.78° C | 45% | 1009.2 hPa | 0 mm | - | 370 W/m² | - |
| 1777930958 | 27.78° C | 43% | 1009.2 hPa | 0 mm | - | 506 W/m² | - |
| 1777930655 | 27.78° C | 46% | 1009.3 hPa | 0 mm | - | 569 W/m² | - |
* Rain latest hour (hover to see other rain measurements)
** Current wind speed in m/s (hover to see current wind gust speed)